Вернуться в каталог

SLS DEB

АктивенUNKNOWN
NORAD 55904·DEBRIS·🇺🇸 United States

Запущен Nov 16, 2022 с Cape Canaveral Space Force Station

Loading…

Ближайшие Пролёты (ближайшие 24 часа)

TLE

СвежийSource: Space-Track

Эпоха: Aug 25, 2026, 14:38 UTC

1 55904U 22156D   26237.60986065  .00160405  00000-0  15251-1 0  9990
2 55904  30.3768   3.9048 1534094 198.4117 155.4353 12.19438074147921

Отслеживайте SLS DEB в реальном времени с AllMySat

Download on the App Store